SCP
0 0 0 0 0 0 0 0 0 0 0 0 0 0 0 0 0 0 0 0 0 0 0 0 0 0 0 0 0 0 0 0 0 0 0 0 0 0
0 0 0 0 0 0 0 0 0 0 0 0 0 0 0 0 0 0 0 0 0 0 0 0 0 0 0 0 0 0 0 0 0 0 0 0 0 0
0 0 0 0 0 0 0 0 0 0 0 0 0 0 0 0 0 0 0 0 0 0 0 0 0 0 0 0 0 0 0 0 0 0 0 0 0 0
0 0 0 0 0 0 0 0 0 0 0 0 0 0 0 0 0 0 0 0 0 0 0 0 0 0 0 0 0 0 0 0 0 0 0 0 0 0
0 0 0 0 0 0 0 0 0 0 0 0 0 0 0 0 0 0 0 0 0 0 0 0 0 0 0 0 0 0 0 0 0 0 0 0 0 0
0 0 0 0 0 0 0 0 0 0 0 0 0 0 -0 -0 -0 -0 -0 0 0 0 0 0 0 0 0 0 0 0 0 0 0 0 0 0 0 0
0 0 0 0 0 0 0 0 0 0 0 0 0 0 -0 -0 0 -0 0 -0 0 -0 0 0 0 0 0 0 0 0 0 0 0 0 0 0 0 0
0 0 0 0 0 0 0 0 0 0 0 0 0 0 0 0 0 0 0 0 -0 -0 0 0 0 0 0 0 0 -0 -0 0 0 0 0 0 0 0
0 0 0 0 0 0 0 0 0 0 0 0 0 0 0 0 0 0 0 0 0 0 0 0 0 0 0 0 0 0 -0 -0 0 0 0 0 0 0
0 0 0 0 0 0 0 0 0 0 0 0 0 0 0 0 0 0 0 0 0 0 0 0 0 0 0 0 0 0 0 0 0 0 0 0 0 0
0 0 0 0 0 0 0 0 0 0 0 0 0 0 0 0 0 0 -0 -0 -0 -0 -0 -0 0 0 0 0 0 0 0 0 0 0 0 0 0 0
0 0 0 0 0 0 0 -0 -0 -0 -0 -0 -0 0 -0 -0 -0 -0 -0 -0 -0 -0 -0 -0 -0 -0 -0 -0 0 0 0 0 0 0 0 1 0 0
0 0 0 0 0 0 0 -0 0 0 -0 -0 -0 -0 -0 -0 -0 -0 -0 -0 -0 -0 0 0 0 0 0 0 0 0 0 0 0 0 0 0 0 0
0 -0 -0 0 0 0 0 0 0 0 -0 -0 -0 -0 -0 -0 -0 -0 -0 -0 -0 -0 0 0 0 0 0 0 0 0 0 0 0 0 0 0 0 0
-0 0 0 0 0 0 0 0 0 -0 -0 -0 -0 -0 -0 -0 -0 -0 -0 -0 0 0 0 0 0 0 0 0 0 0 0 0 0 0 0 0 0 0
0 0 0 0 0 0 0 0 0 0 -0 -0 -0 -0 -0 -0 -0 -0 -0 -0 0 0 0 0 0 0 0 0 0 0 0 0 0 0 0 0 0 0
0 -0 -0 -0 -0 -0 -0 -0 -0 -0 -0 -0 -0 -0 -0 0 0 -0 0 0 0 0 0 0 0 0 0 0 0 0 0 0 0 0 0 0 0 0
-0 -0 -0 -0 -0 -0 -0 -0 0 0 0 0 0 0 0 0 0 0 0 0 0 0 0 0 0 0 0 0 0 0 0 0 0 0 0 0 -0 0
-0 -0 -0 -0 -0 0 0 0 0 0 0 0 0 0 0 0 0 0 0 0 0 0 0 0 0 0 0 0 0 0 0 0 0 0 0 0 -0 -0
-0 -0 -0 0 0 0 0 0 0 0 0 0 0 0 0 0 0 0 0 0 0 0 0 0 0 0 0 0 0 0 0 -0 0 0 0 -0 -0 -0
0 0 0 0 0 0 0 0 0 0 0 0 0 0 0 0 0 0 0 0 0 0 0 0 0 0 0 0 0 0 0 -0 -0 -0 -0 -0 -0 -0
0 0 0 0 0 0 0 0 0 0 0 0 0 0 0 0 0 0 0 0 0 0 0 0 0 0 0 0 -0 -0 -0 -0 -0 -0 -0 -0 -0 -0
0 0 0 0 0 0 0 0 0 0 0 0 0 0 0 0 0 0 0 0 0 0 0 0 0 0 0 0 -0 -0 -0 -0 0 -0 -0 -0 -0 -0
Wind_Speed_500mb
70 67 64 63 61 51 51 47 42 32 42 45 48 48 61 48 51 58 65 65 66 71 76 81 87 92 94 93 93 91 87 85 86 86 87 87 86 85
51 45 42 37 35 41 40 43 40 41 48 55 58 57 54 57 60 66 72 75 78 81 84 90 96 99 101 101 101 98 95 96 96 92 92 92 92 91
24 21 22 23 24 26 32 45 53 58 59 70 66 59 67 74 79 82 84 89 93 95 90 95 97 100 104 105 106 105 104 102 100 99 97 96 95 95
34 35 35 43 52 58 57 52 47 42 50 71 75 78 83 83 81 81 82 83 88 91 89 91 94 95 97 99 103 106 107 107 105 105 101 99 98 96
6 7 12 17 23 28 33 36 39 44 49 61 74 74 76 75 79 81 83 88 91 94 96 97 96 96 97 96 96 98 101 104 106 108 107 105 102 100
13 15 17 20 22 26 30 35 39 45 51 59 68 72 73 73 72 78 91 93 104 105 109 109 108 111 110 107 105 105 102 98 99 102 104 111 110 105
19 19 21 23 28 33 40 44 46 47 49 53 59 65 64 67 70 76 85 95 97 85 88 93 92 99 109 113 116 116 104 95 93 92 96 97 106 116
30 30 28 29 33 37 41 43 44 45 47 50 58 68 76 79 85 86 84 90 100 80 85 112 94 108 102 101 106 100 95 91 88 88 89 90 95 100
35 36 41 44 45 47 48 48 47 47 49 55 62 66 73 77 84 92 92 93 101 108 101 124 91 94 87 92 91 95 92 92 90 92 91 95 96 100
43 44 45 47 53 58 60 59 59 56 57 61 64 66 67 71 73 76 84 95 104 108 99 118 114 109 102 105 108 89 84 91 95 92 93 89 90 93
49 50 52 56 62 67 69 69 68 66 65 65 67 69 72 74 75 83 88 95 112 113 93 55 75 110 111 116 93 76 80 94 97 96 94 86 90 92
52 56 59 64 67 71 74 72 74 76 79 79 77 77 78 78 76 72 76 83 88 91 58 92 92 76 79 85 77 99 89 77 75 82 88 86 79 80
62 67 69 72 72 71 68 64 61 70 76 78 81 81 80 79 76 71 67 66 75 82 89 72 89 87 77 91 96 106 92 77 71 68 68 74 83 76
70 73 73 72 71 69 67 64 64 70 75 79 82 83 83 82 79 78 75 65 60 70 77 67 77 85 91 96 92 101 101 94 87 82 78 78 76 71
70 71 71 72 71 70 67 66 69 73 76 80 83 85 84 84 86 89 86 77 71 65 61 58 67 84 81 84 90 97 87 105 97 72 79 81 79 79
77 76 74 70 67 66 68 67 69 70 72 74 76 79 80 82 85 86 87 84 83 84 75 69 67 68 83 91 89 99 93 83 85 79 84 88 87 91
80 80 80 79 79 78 75 73 70 69 70 68 72 78 81 82 85 86 85 83 77 80 89 90 79 73 75 75 83 74 72 80 81 84 86 101 101 98
86 87 85 82 78 77 77 77 73 72 70 69 73 77 81 82 86 89 86 81 79 83 87 87 87 92 92 82 46 62 78 79 95 92 92 96 108 98
88 85 82 80 78 77 76 75 75 71 69 68 74 78 79 80 85 89 87 84 86 87 88 85 84 79 78 87 100 56 70 103 99 99 93 96 104 109
90 87 84 81 78 76 74 73 72 68 64 67 74 77 78 80 85 83 82 84 88 92 95 92 87 84 78 89 106 118 98 89 86 97 102 100 103 100
86 83 77 73 69 66 66 65 64 61 60 70 76 77 76 78 79 77 81 84 87 90 98 98 87 80 84 91 96 113 114 93 73 77 90 93 98 102
82 80 75 69 64 63 65 64 61 56 62 72 73 75 73 73 72 75 80 89 91 90 93 93 88 88 91 94 101 106 108 99 79 76 65 62 74 50
78 74 68 60 56 57 57 57 53 54 64 70 74 70 68 70 69 73 78 86 93 93 93 98 96 96 98 98 96 98 97 96 98 94 71 51 50 67
Wind_Direction_500mb
261 264 264 264 261 260 263 266 269 282 280 275 282 290 286 279 280 283 282 285 285 286 285 283 284 282 282 282 281 279 275 273 272 271 270 270 268 267
262 264 257 255 253 264 266 268 266 277 280 282 280 282 281 280 278 284 281 282 282 284 285 282 282 281 281 281 280 277 274 274 273 270 269 270 268 267
263 265 270 272 281 269 267 268 271 269 277 283 283 283 285 283 282 285 286 284 281 282 284 282 281 280 280 280 279 277 275 274 271 270 269 269 267 266
295 285 274 270 264 266 268 272 275 287 293 296 297 298 299 301 301 301 298 294 291 289 288 286 284 284 283 282 281 280 278 276 272 269 269 268 268 267
272 290 293 296 296 300 306 306 303 298 295 298 300 303 306 311 311 307 306 303 300 299 297 294 293 291 289 287 284 282 280 277 274 273 271 267 267 266
357 346 339 336 332 327 325 325 322 320 318 316 313 316 321 323 321 319 314 312 310 308 304 303 301 300 299 296 294 291 288 285 280 277 273 271 269 265
32 18 2 349 338 338 336 332 329 325 325 322 320 320 324 326 323 318 314 313 311 308 304 304 303 300 299 298 297 298 295 290 285 278 275 271 266 265
16 14 10 1 358 358 355 352 348 347 340 328 325 324 320 317 313 312 311 309 311 312 308 302 298 294 293 292 292 290 285 283 281 280 278 275 270 264
32 25 18 12 6 2 357 351 346 342 334 329 326 325 322 322 318 318 316 311 307 306 307 298 300 296 293 298 293 289 282 280 279 278 273 274 271 267
30 23 14 6 0 353 349 346 342 339 334 333 330 327 325 323 323 319 315 312 306 308 312 305 308 305 301 290 287 287 286 282 280 276 276 272 269 266
22 14 6 360 355 348 345 342 338 334 332 331 328 324 324 324 326 323 325 323 318 318 325 306 304 307 310 308 310 303 293 284 280 275 272 271 271 266
10 4 359 353 347 342 339 338 335 332 334 331 328 329 331 332 334 334 330 325 322 320 309 317 314 316 313 314 308 307 307 298 289 283 275 271 268 265
360 356 352 348 343 339 336 337 336 331 331 331 332 334 335 336 337 335 331 324 316 306 313 315 311 318 307 305 309 313 314 308 297 284 276 270 265 272
355 350 346 342 338 336 335 337 336 333 334 337 339 341 341 340 340 339 335 328 314 306 312 316 307 311 305 303 304 309 309 307 302 297 291 283 276 272
352 346 341 337 333 332 334 336 337 339 340 341 343 343 343 341 341 340 337 335 324 318 316 313 309 308 306 301 302 302 303 302 304 301 296 294 291 285
347 342 339 333 331 334 337 342 345 345 345 344 342 341 340 341 343 345 340 339 332 331 333 326 315 311 305 305 306 302 305 293 303 304 303 301 299 294
340 340 338 341 343 344 345 347 349 350 350 348 344 343 343 343 343 346 344 338 326 325 323 332 329 321 317 315 311 310 309 306 310 311 307 303 299 297
341 340 344 344 344 345 346 347 349 349 349 346 346 345 344 343 343 344 344 339 330 328 329 336 337 333 329 323 311 306 308 304 316 314 308 303 301 302
338 340 342 343 343 343 344 344 345 346 346 348 347 346 345 344 345 344 344 340 336 336 335 336 337 335 321 313 320 317 304 314 315 312 310 304 299 302
339 339 339 339 338 338 339 340 341 345 346 347 347 347 348 348 344 343 343 340 338 337 336 338 338 334 322 313 313 320 324 314 312 305 303 302 298 298
336 335 337 337 336 336 337 338 342 346 347 347 347 348 350 349 344 345 344 344 342 341 337 337 337 335 330 327 319 321 326 327 314 298 300 293 295 302
337 336 339 339 338 338 339 341 344 348 349 348 348 349 352 350 346 347 348 346 345 341 338 339 341 338 336 332 326 325 328 331 331 329 316 296 282 278
336 337 340 341 340 340 340 342 346 350 351 350 350 352 354 348 347 345 345 346 346 344 343 341 341 341 339 338 334 331 335 336 339 337 337 341 315 286
Wind_Speed_850mb
70 67 64 63 61 51 51 47 42 32 42 45 48 48 61 48 51 58 65 65 66 71 76 81 87 92 94 93 93 91 87 85 86 86 87 87 86 85
51 45 42 37 35 41 40 43 40 41 48 55 58 57 54 57 60 66 72 75 78 81 84 90 96 99 101 101 101 98 95 96 96 92 92 92 92 91
24 21 22 23 24 26 32 45 53 58 59 70 66 59 67 74 79 82 84 89 93 95 90 95 97 100 104 105 106 105 104 102 100 99 97 96 95 95
34 35 35 43 52 58 57 52 47 42 50 71 75 78 83 83 81 81 82 83 88 91 89 91 94 95 97 99 103 106 107 107 105 105 101 99 98 96
6 7 12 17 23 28 33 36 39 44 49 61 74 74 76 75 79 81 83 88 91 94 96 97 96 96 97 96 96 98 101 104 106 108 107 105 102 100
13 15 17 20 22 26 30 35 39 45 51 59 68 72 73 73 72 78 91 93 104 105 109 109 108 111 110 107 105 105 102 98 99 102 104 111 110 105
19 19 21 23 28 33 40 44 46 47 49 53 59 65 64 67 70 76 85 95 97 85 88 93 92 99 109 113 116 116 104 95 93 92 96 97 106 116
30 30 28 29 33 37 41 43 44 45 47 50 58 68 76 79 85 86 84 90 100 80 85 112 94 108 102 101 106 100 95 91 88 88 89 90 95 100
35 36 41 44 45 47 48 48 47 47 49 55 62 66 73 77 84 92 92 93 101 108 101 124 91 94 87 92 91 95 92 92 90 92 91 95 96 100
43 44 45 47 53 58 60 59 59 56 57 61 64 66 67 71 73 76 84 95 104 108 99 118 114 109 102 105 108 89 84 91 95 92 93 89 90 93
49 50 52 56 62 67 69 69 68 66 65 65 67 69 72 74 75 83 88 95 112 113 93 55 75 110 111 116 93 76 80 94 97 96 94 86 90 92
52 56 59 64 67 71 74 72 74 76 79 79 77 77 78 78 76 72 76 83 88 91 58 92 92 76 79 85 77 99 89 77 75 82 88 86 79 80
62 67 69 72 72 71 68 64 61 70 76 78 81 81 80 79 76 71 67 66 75 82 89 72 89 87 77 91 96 106 92 77 71 68 68 74 83 76
70 73 73 72 71 69 67 64 64 70 75 79 82 83 83 82 79 78 75 65 60 70 77 67 77 85 91 96 92 101 101 94 87 82 78 78 76 71
70 71 71 72 71 70 67 66 69 73 76 80 83 85 84 84 86 89 86 77 71 65 61 58 67 84 81 84 90 97 87 105 97 72 79 81 79 79
77 76 74 70 67 66 68 67 69 70 72 74 76 79 80 82 85 86 87 84 83 84 75 69 67 68 83 91 89 99 93 83 85 79 84 88 87 91
80 80 80 79 79 78 75 73 70 69 70 68 72 78 81 82 85 86 85 83 77 80 89 90 79 73 75 75 83 74 72 80 81 84 86 101 101 98
86 87 85 82 78 77 77 77 73 72 70 69 73 77 81 82 86 89 86 81 79 83 87 87 87 92 92 82 46 62 78 79 95 92 92 96 108 98
88 85 82 80 78 77 76 75 75 71 69 68 74 78 79 80 85 89 87 84 86 87 88 85 84 79 78 87 100 56 70 103 99 99 93 96 104 109
90 87 84 81 78 76 74 73 72 68 64 67 74 77 78 80 85 83 82 84 88 92 95 92 87 84 78 89 106 118 98 89 86 97 102 100 103 100
86 83 77 73 69 66 66 65 64 61 60 70 76 77 76 78 79 77 81 84 87 90 98 98 87 80 84 91 96 113 114 93 73 77 90 93 98 102
82 80 75 69 64 63 65 64 61 56 62 72 73 75 73 73 72 75 80 89 91 90 93 93 88 88 91 94 101 106 108 99 79 76 65 62 74 50
78 74 68 60 56 57 57 57 53 54 64 70 74 70 68 70 69 73 78 86 93 93 93 98 96 96 98 98 96 98 97 96 98 94 71 51 50 67
Wind_Direction_850mb
261 264 264 264 261 260 263 266 269 282 280 275 282 290 286 279 280 283 282 285 285 286 285 283 284 282 282 282 281 279 275 273 272 271 270 270 268 267
262 264 257 255 253 264 266 268 266 277 280 282 280 282 281 280 278 284 281 282 282 284 285 282 282 281 281 281 280 277 274 274 273 270 269 270 268 267
263 265 270 272 281 269 267 268 271 269 277 283 283 283 285 283 282 285 286 284 281 282 284 282 281 280 280 280 279 277 275 274 271 270 269 269 267 266
295 285 274 270 264 266 268 272 275 287 293 296 297 298 299 301 301 301 298 294 291 289 288 286 284 284 283 282 281 280 278 276 272 269 269 268 268 267
272 290 293 296 296 300 306 306 303 298 295 298 300 303 306 311 311 307 306 303 300 299 297 294 293 291 289 287 284 282 280 277 274 273 271 267 267 266
357 346 339 336 332 327 325 325 322 320 318 316 313 316 321 323 321 319 314 312 310 308 304 303 301 300 299 296 294 291 288 285 280 277 273 271 269 265
32 18 2 349 338 338 336 332 329 325 325 322 320 320 324 326 323 318 314 313 311 308 304 304 303 300 299 298 297 298 295 290 285 278 275 271 266 265
16 14 10 1 358 358 355 352 348 347 340 328 325 324 320 317 313 312 311 309 311 312 308 302 298 294 293 292 292 290 285 283 281 280 278 275 270 264
32 25 18 12 6 2 357 351 346 342 334 329 326 325 322 322 318 318 316 311 307 306 307 298 300 296 293 298 293 289 282 280 279 278 273 274 271 267
30 23 14 6 0 353 349 346 342 339 334 333 330 327 325 323 323 319 315 312 306 308 312 305 308 305 301 290 287 287 286 282 280 276 276 272 269 266
22 14 6 360 355 348 345 342 338 334 332 331 328 324 324 324 326 323 325 323 318 318 325 306 304 307 310 308 310 303 293 284 280 275 272 271 271 266
10 4 359 353 347 342 339 338 335 332 334 331 328 329 331 332 334 334 330 325 322 320 309 317 314 316 313 314 308 307 307 298 289 283 275 271 268 265
360 356 352 348 343 339 336 337 336 331 331 331 332 334 335 336 337 335 331 324 316 306 313 315 311 318 307 305 309 313 314 308 297 284 276 270 265 272
355 350 346 342 338 336 335 337 336 333 334 337 339 341 341 340 340 339 335 328 314 306 312 316 307 311 305 303 304 309 309 307 302 297 291 283 276 272
352 346 341 337 333 332 334 336 337 339 340 341 343 343 343 341 341 340 337 335 324 318 316 313 309 308 306 301 302 302 303 302 304 301 296 294 291 285
347 342 339 333 331 334 337 342 345 345 345 344 342 341 340 341 343 345 340 339 332 331 333 326 315 311 305 305 306 302 305 293 303 304 303 301 299 294
340 340 338 341 343 344 345 347 349 350 350 348 344 343 343 343 343 346 344 338 326 325 323 332 329 321 317 315 311 310 309 306 310 311 307 303 299 297
341 340 344 344 344 345 346 347 349 349 349 346 346 345 344 343 343 344 344 339 330 328 329 336 337 333 329 323 311 306 308 304 316 314 308 303 301 302
338 340 342 343 343 343 344 344 345 346 346 348 347 346 345 344 345 344 344 340 336 336 335 336 337 335 321 313 320 317 304 314 315 312 310 304 299 302
339 339 339 339 338 338 339 340 341 345 346 347 347 347 348 348 344 343 343 340 338 337 336 338 338 334 322 313 313 320 324 314 312 305 303 302 298 298
336 335 337 337 336 336 337 338 342 346 347 347 347 348 350 349 344 345 344 344 342 341 337 337 337 335 330 327 319 321 326 327 314 298 300 293 295 302
337 336 339 339 338 338 339 341 344 348 349 348 348 349 352 350 346 347 348 346 345 341 338 339 341 338 336 332 326 325 328 331 331 329 316 296 282 278
336 337 340 341 340 340 340 342 346 350 351 350 350 352 354 348 347 345 345 346 346 344 343 341 341 341 339 338 334 331 335 336 339 337 337 341 315 286